This demonstration page uses our WeatherBlox Daily Observations layout. Learn more.

Left ArrowRight Arrow

39.92423, -83.80882

Hourly Observations for November 23, 2015

Temp ( °F °C ) Dew Point ( °F °C ) Humidity (%) Winds ( mph kmh ) Pressure ( in mb ) Visibility ( mi km ) Precip ( " mm )
12:56 am 00:56 Clear 18 -7.7 16 -8.8 92 92 S 3 6 30.22 1024 10 16.0934 0 0
1:56 am 01:56 Cloudy 22 -5.5 19 -7.2 88 88 S 3 6 30.21 1023 10 16.0934 0 0
2:56 am 02:56 Cloudy 25 -3.8 19 -7.2 78 78 SSW 5 7 30.22 1023 10 16.0934 0 0
3:56 am 03:56 Cloudy 25 -3.8 19 -7.2 78 78 S 5 7 30.21 1023 10 16.0934 0 0
4:56 am 04:56 Cloudy 25 -3.8 19 -7.2 78 78 S 7 11 30.2 1023 10 16.0934 0 0
5:56 am 05:56 Partly Cloudy 25 -3.8 17 -8.3 71 71 SSE 8 13 30.2 1023 10 16.0934 0 0
6:56 am 06:56 Mostly Cloudy 25 -3.8 16 -8.8 69 69 S 7 11 30.21 1023 10 16.0934 0 0
7:56 am 07:56 Cloudy 27 -2.7 17 -8.3 66 66 S 9 15 30.21 1023 10 16.0934 0 0
8:56 am 08:56 Mostly Cloudy 29 -1.6 18 -7.7 64 64 S 10 17 30.2 1023 10 16.0934 0 0
9:56 am 09:56 Cloudy 33 0.5 18 -7.7 55 55 S 10 17 30.19 1022 10 16.0934 0 0
10:56 am 10:56 Cloudy 35 1.6 17 -8.3 48 48 SSW 12 19 30.18 1022 10 16.0934 0 0
11:56 am 11:56 Cloudy 35 1.6 18 -7.7 50 50 S 14 22 30.15 1021 10 16.0934 0 0
12:56 pm 12:56 Mostly Cloudy 39 3.8 18 -7.7 43 43 SSW 15 24 30.13 1020 10 16.0934 0 0
1:56 pm 13:56 Sunny 42 5.5 20 -6.6 42 42 SW 17 28 30.11 1020 10 16.0934 0 0
2:56 pm 14:56 Mostly Sunny 44 6.6 23 -5 44 44 WSW 18 30 30.11 1020 10 16.0934 0 0
3:56 pm 15:56 Sunny 44 6.6 24 -4.4 46 46 WSW 17 28 30.12 1020 10 16.0934 0 0
4:56 pm 16:56 Partly Cloudy 40 4.4 26 -3.3 58 58 W 10 17 30.15 1021 10 16.0934 0 0
5:56 pm 17:56 Clear 36 2.2 25 -3.8 65 65 WSW 8 13 30.17 1022 10 16.0934 0 0
6:56 pm 18:56 Clear 32 0 25 -3.8 76 76 SW 7 11 30.19 1022 10 16.0934 0 0
7:56 pm 19:56 Mostly Cloudy 36 2.2 26 -3.3 67 67 SW 6 9 30.2 1023 10 16.0934 0 0
8:56 pm 20:56 Mostly Clear 33 0.5 25 -3.8 73 73 SW 7 11 30.22 1023 10 16.0934 0 0
9:56 pm 21:56 Cloudy 34 1.1 27 -2.7 76 76 SW 7 11 30.23 1024 10 16.0934 0 0
10:56 pm 22:56 Clear 33 0.5 25 -3.8 73 73 SW 8 13 30.23 1024 10 16.0934 0 0
11:56 pm 23:56 Clear 32 0 26 -3.3 79 79 SSW 9 15 30.24 1024 10 16.0934 0 0

Powered by AerisWeather